[[{"header":{"parameterUnit":"m.s-1","parameterCategory":1,"la1":30.2991,"la2":30.254,"lo1":-89.0895,"lo2":-89.0444,"dy":0.0017,"dx":0.0017,"nx":28,"ny":28,"refTime":"2023-10-08T03:00:00:Z","depth":0,"parameterNumber":2,"parameterNumberName":"U-component_of_WINDS"},"data":[0,0,0,0,0,0,0,0,0,0,0,0,0,0,0,0,0,0,0,0,0,0,0,0,0,0,0,0,0,0,0,0,0,0,0,0,0,0,0,0,0,0,0,0,0,0,0,0,0,0,0,0,0,0,0,0,0,0,0.6913,0.6913,0,0.6912,0.6912,0.6911,0.6916,0.6916,0.6916,0.6916,0.6915,0.6915,0.6915,0,0,0,0,0,0,0,0,0,0,0,0,0,0.692,0.692,0.6913,0.6913,0.6913,0.6912,0.6912,0.6911,0.6916,0.6916,0.6916,0.6916,0.6915,0.6915,0.6915,0,0,0,0,0,0,0,0,0,0,0,0,0,0.6918,0.692,0.6913,0.6915,0.6915,0.6912,0.6912,0.6911,0.6916,0.6916,0.6916,0.6916,0.6915,0.6915,0.6915,0.691,0,0,0.6914,0.6914,0,0,0,0,0,0,0,0,0.6918,0.6917,0.6914,0.6915,0.6915,0.6914,0.6914,0.6911,0.6916,0.6915,0.6916,0.6916,0.6915,0.6915,0.6914,0.691,0.691,0.6914,0.6914,0.6914,0.6914,0,0,0,0,0,0,0,0.6918,0.6917,0.6912,0.6914,0.6915,0.6916,0.6916,0.6913,0.6914,0.6915,0.6916,0.6915,0.6915,0.6914,0.6914,0.691,0.6914,0.6914,0.6914,0.6914,0.6903,0.6903,0,0,0,0,0,0,0.6918,0.6918,0.6912,0.6912,0.6917,0.6916,0.6916,0.6914,0.6914,0.6914,0.6915,0.6916,0.6914,0.6914,0.6914,0.6909,0.6914,0.6914,0.6914,0.6903,0.6903,0.6903,0,0,0,0,0,0,0.6918,0.6917,0.6912,0.6915,0.6915,0.6915,0.6914,0.6914,0.6913,0.6914,0.6914,0.6914,0.6915,0.6914,0.6911,0.6909,0.6914,0.6914,0.6903,0.6903,0.6903,0.6897,0,0,0,0,0,0,0.6918,0.6917,0.6915,0.6915,0.6914,0.6909,0.6913,0.6914,0.6913,0.6913,0.6913,0.6913,0.6915,0.6911,0.6911,0.6908,0.6913,0.6903,0.6903,0.6903,0.6898,0.6897,0.6896,0,0,0,0,0,0.6918,0.6913,0.6915,0.6914,0.6911,0.6909,0.6909,0.691,0.6912,0.691,0.6911,0.6913,0.6909,0.6911,0.6911,0.6908,0.6904,0.6903,0.6903,0.6898,0.6897,0.6896,0,0,0,0,0,0,0.6913,0.6913,0.6915,0.691,0.6909,0.691,0.6907,0.6909,0.6908,0.6908,0.691,0.691,0.6907,0.6907,0.6909,0.6904,0.6907,0.6906,0.6903,0.6903,0.6902,0.6902,0.6913,0,0,0,0,0,0.6911,0.6909,0.6909,0.6905,0.6904,0.6906,0.6905,0.6906,0.6906,0.6906,0.6906,0.6906,0.6905,0.6904,0.6903,0.6898,0.6899,0.6896,0.6896,0.6895,0.6894,0.6893,0.6892,0.6901,0.6901,0.6901,0,0,0.6907,0.6907,0.6905,0.6904,0.6903,0.6901,0.6906,0.6903,0.6902,0.6905,0.6902,0.6903,0.6903,0.6899,0.6898,0.6899,0.6892,0.6895,0.6894,0.6894,0.6893,0.6892,0.6891,0.6901,0.6901,0.6901,0,0,0.6899,0.6899,0.6895,0.6895,0.6895,0.6896,0.6895,0.6896,0.6896,0.6893,0.6896,0.6895,0.6893,0.6893,0.6893,0.6886,0.6889,0.6886,0.6882,0.6881,0.688,0.6879,0.6877,0.6877,0.6886,0.6886,0.6886,0,0.6894,0.6891,0.6893,0.6891,0.689,0.6894,0.689,0.689,0.689,0.689,0.6892,0.6889,0.689,0.6887,0.6885,0.6885,0.6884,0.6886,0.688,0.6879,0.6879,0.6877,0.6876,0.6885,0.6885,0.6885,0.6885,0,0.6885,0.6883,0.688,0.688,0.6879,0.6876,0.6879,0.6878,0.688,0.6881,0.6879,0.6879,0.6879,0.6878,0.688,0.6876,0.6877,0.6879,0.6882,0.6877,0.6876,0.6875,0.6885,0.6885,0.6885,0.6885,0,0,0.6872,0.6874,0.6873,0.6874,0.6874,0.6873,0.6871,0.687,0.687,0.687,0.6868,0.6867,0.687,0.6869,0.6871,0.687,0.6866,0.6873,0.6873,0.6872,0.6862,0.686,0.6859,0.6868,0.6867,0.6867,0.6862,0,0.6865,0.6861,0.6863,0.6859,0.6858,0.6862,0.686,0.6861,0.6862,0.6861,0.6863,0.6862,0.6866,0.6866,0.6865,0.6866,0.6864,0.6867,0.6867,0.6867,0.6866,0.6858,0.6856,0.6851,0.6862,0.6861,0.6861,0,0.6855,0.6855,0.685,0.6852,0.6852,0.685,0.6851,0.685,0.6851,0.6852,0.6853,0.6855,0.6854,0.6858,0.6857,0.6859,0.6859,0.686,0.686,0.686,0.6863,0.6858,0.685,0.6849,0.686,0.686,0.6861,0,0.6846,0.6845,0.6842,0.6843,0.6845,0.6844,0.6845,0.6846,0.6846,0.6847,0.6847,0.6847,0.6848,0.6848,0.6851,0.6854,0.685,0.6854,0.6852,0.6851,0.685,0.685,0.6842,0.6851,0.6851,0.6851,0.6851,0,0.6837,0.6834,0.6839,0.6837,0.6835,0.6838,0.6836,0.6837,0.6839,0.6838,0.6842,0.6841,0.6845,0.6845,0.6848,0.6847,0.6847,0.6848,0.6849,0.6848,0.6848,0.6848,0.6848,0.685,0.685,0.685,0.685,0,0.6826,0.6829,0.6827,0.683,0.683,0.6828,0.6831,0.683,0.6832,0.6831,0.6831,0.6835,0.6835,0.6839,0.684,0.6842,0.684,0.6841,0.6839,0.684,0.6837,0.6838,0.6828,0.6828,0.6837,0.6837,0.6837,0,0.682,0.6818,0.6821,0.6821,0.6822,0.6821,0.6822,0.6825,0.6826,0.6828,0.6827,0.6827,0.6828,0.6829,0.6832,0.6833,0.6835,0.6831,0.6835,0.6834,0.6835,0.6835,0.6835,0.683,0.683,0.683,0.683,0,0.6809,0.6811,0.6811,0.6812,0.6812,0.6813,0.6814,0.6814,0.6818,0.6818,0.6819,0.6819,0.6821,0.6822,0.6824,0.6826,0.6829,0.6829,0.6829,0.6827,0.6826,0.6827,0.6837,0.6829,0.6829,0.6829,0.6829,0.6829,0.6801,0.6799,0.6801,0.6802,0.6803,0.6804,0.6804,0.6806,0.6807,0.6808,0.6811,0.6811,0.6814,0.6817,0.6818,0.6819,0.6821,0.682,0.682,0.682,0.6819,0.6827,0.682,0.682,0.682,0.682,0.682,0,0.679,0.6792,0.6792,0.6793,0.6794,0.6797,0.6799,0.6799,0.6799,0.6802,0.6803,0.6804,0.6805,0.6809,0.6811,0.6811,0.6812,0.6811,0.6811,0.6811,0.6818,0.6818,0.681,0.681,0.681,0.681,0.681,0.681,0.6784,0.6782,0.6785,0.6784,0.6786,0.6787,0.6788,0.6789,0.6791,0.6792,0.6793,0.6796,0.6799,0.6801,0.6803,0.6804,0.6805,0.6803,0.6804,0.681,0.6811,0.6812,0.6812,0.6803,0.6803,0.6798,0.6798,0.6798]},{"header":{"parameterUnit":"m.s-1","parameterCategory":1,"la1":30.2991,"la2":30.254,"lo1":-89.0895,"lo2":-89.0444,"dy":0.0017,"dx":0.0017,"nx":28,"ny":28,"refTime":"2023-10-08T03:00:00:Z","depth":0,"parameterNumber":3,"parameterNumberName":"V-component_of_WINDS"},"data":[0,0,0,0,0,0,0,0,0,0,0,0,0,0,0,0,0,0,0,0,0,0,0,0,0,0,0,0,0,0,0,0,0,0,0,0,0,0,0,0,0,0,0,0,0,0,0,0,0,0,0,0,0,0,0,0,0,0,-6.4037,-6.4038,0,-6.4133,-6.4134,-6.4135,-6.413,-6.4129,-6.4128,-6.4126,-6.4219,-6.4222,-6.4226,0,0,0,0,0,0,0,0,0,0,0,0,0,-6.3843,-6.3847,-6.4037,-6.4038,-6.4039,-6.4133,-6.4134,-6.4136,-6.4131,-6.4129,-6.4127,-6.4126,-6.4217,-6.4222,-6.4226,0,0,0,0,0,0,0,0,0,0,0,0,0,-6.3932,-6.3848,-6.4036,-6.4048,-6.405,-6.4133,-6.4134,-6.4136,-6.4131,-6.4129,-6.4127,-6.4125,-6.4216,-6.4221,-6.4227,-6.4302,0,0,-6.4244,-6.4246,0,0,0,0,0,0,0,0,-6.3927,-6.3939,-6.4045,-6.4047,-6.405,-6.4118,-6.41,-6.4192,-6.4131,-6.41,-6.4126,-6.4124,-6.4186,-6.4194,-6.4217,-6.4307,-6.4311,-6.4244,-6.4248,-6.425,-6.4252,0,0,0,0,0,0,0,-6.3921,-6.3935,-6.4075,-6.4047,-6.405,-6.4047,-6.4057,-6.4117,-6.4153,-6.4103,-6.4102,-6.4114,-6.4187,-6.4211,-6.4219,-6.4312,-6.4244,-6.4249,-6.4253,-6.4255,-6.447,-6.4473,0,0,0,0,0,0,-6.3913,-6.393,-6.4072,-6.4078,-6.3982,-6.4052,-6.4064,-6.4098,-6.4153,-6.4159,-6.4116,-6.4114,-6.4203,-6.4212,-6.4222,-6.4315,-6.425,-6.4255,-6.4259,-6.4468,-6.4471,-6.4474,0,0,0,0,0,0,-6.3909,-6.3926,-6.4068,-6.4004,-6.4022,-6.4058,-6.4096,-6.4101,-6.4125,-6.4163,-6.4169,-6.4134,-6.4201,-6.4214,-6.4283,-6.4318,-6.4258,-6.4263,-6.4465,-6.4469,-6.4472,-6.4501,0,0,0,0,0,0,-6.3903,-6.3924,-6.3954,-6.4005,-6.4025,-6.4129,-6.4098,-6.4104,-6.4136,-6.4133,-6.4182,-6.4187,-6.4201,-6.4275,-6.4289,-6.4325,-6.4267,-6.4462,-6.4467,-6.4471,-6.4497,-6.4505,-6.4512,0,0,0,0,0,-6.3896,-6.3957,-6.3956,-6.3973,-6.4064,-6.4131,-6.4142,-6.4158,-6.4138,-6.4168,-6.4193,-6.4186,-6.4312,-6.4282,-6.4298,-6.4336,-6.446,-6.4466,-6.4471,-6.4494,-6.4504,-6.4512,0,0,0,0,0,0,-6.3906,-6.3963,-6.3963,-6.4042,-6.4082,-6.413,-6.4168,-6.4168,-6.4213,-6.4209,-6.4225,-6.4236,-6.4305,-6.4327,-6.4293,-6.4412,-6.4383,-6.4392,-6.4396,-6.4405,-6.4412,-6.4405,-6.4272,0,0,0,0,0,-6.3918,-6.397,-6.4016,-6.4081,-6.4102,-6.4132,-6.4161,-6.4171,-6.4212,-6.4228,-6.4257,-6.4296,-6.4345,-6.4376,-6.4423,-6.4501,-6.4511,-6.4535,-6.4542,-6.4548,-6.4555,-6.4599,-6.461,-6.4491,-6.4491,-6.4491,0,0,-6.3942,-6.398,-6.4011,-6.4084,-6.4116,-6.4168,-6.4146,-6.4201,-6.4239,-6.4236,-6.4304,-6.4327,-6.4371,-6.4446,-6.448,-6.4466,-6.4591,-6.4555,-6.4559,-6.4563,-6.4606,-6.4617,-6.4627,-6.4495,-6.4494,-6.4493,0,0,-6.4012,-6.4046,-6.4105,-6.4139,-6.4189,-6.4209,-6.4223,-6.4272,-6.4288,-6.4358,-6.4357,-6.4402,-6.4485,-6.4517,-6.4544,-6.463,-6.4625,-6.4644,-6.4683,-6.4725,-6.4735,-6.4743,-6.4774,-6.4785,-6.4651,-6.4651,-6.4651,0,-6.4035,-6.4115,-6.4134,-6.4192,-6.4224,-6.4226,-6.4285,-6.4316,-6.4378,-6.44,-6.4384,-6.449,-6.452,-6.4602,-6.4624,-6.4646,-6.4662,-6.4638,-6.4732,-6.4741,-6.4749,-6.4778,-6.479,-6.4653,-6.4653,-6.4653,-6.4653,0,-6.4141,-6.4197,-6.4238,-6.4301,-6.4338,-6.4395,-6.4422,-6.4457,-6.4464,-6.4485,-6.4556,-6.4592,-6.4647,-6.4667,-6.4673,-6.4751,-6.4741,-6.4729,-6.47,-6.4762,-6.479,-6.4802,-6.4656,-6.4656,-6.4655,-6.4654,0,0,-6.4218,-6.4294,-6.4309,-6.4338,-6.4395,-6.4438,-6.4495,-6.4552,-6.4582,-6.4625,-6.4673,-6.4745,-6.4735,-6.4766,-6.4775,-6.4812,-6.4879,-6.4796,-6.4797,-6.481,-6.4968,-6.4977,-6.499,-6.4877,-6.4879,-6.4881,-6.4964,0,-6.4295,-6.44,-6.442,-6.4511,-6.4563,-6.4567,-6.4617,-6.4657,-6.4679,-6.4725,-6.4748,-6.4799,-6.4781,-6.48,-6.4838,-6.4863,-6.4911,-6.4857,-6.4921,-6.4923,-6.491,-6.5005,-6.5014,-6.5091,-6.4976,-6.4977,-6.4979,0,-6.4398,-6.4447,-6.4544,-6.4596,-6.4619,-6.4664,-6.4718,-6.4762,-6.4807,-6.4821,-6.4857,-6.4863,-6.4922,-6.4892,-6.4973,-6.4936,-6.4963,-6.498,-6.4983,-6.4989,-6.4954,-6.5013,-6.5116,-6.5127,-6.4996,-6.4995,-6.4994,0,-6.4445,-6.4535,-6.4606,-6.4631,-6.4693,-6.4725,-6.4752,-6.4795,-6.4829,-6.4875,-6.4897,-6.4949,-6.4978,-6.5017,-6.5037,-6.5013,-6.5117,-6.5088,-6.5129,-6.5129,-6.515,-6.5148,-6.5259,-6.5168,-6.5168,-6.5168,-6.5167,0,-6.4528,-6.4587,-6.4628,-6.4671,-6.4738,-6.476,-6.4824,-6.485,-6.489,-6.4937,-6.4943,-6.4987,-6.501,-6.5057,-6.5073,-6.5138,-6.5151,-6.5162,-6.5166,-6.5162,-6.516,-6.5179,-6.5174,-6.5171,-6.517,-6.517,-6.5169,0,-6.4592,-6.4622,-6.4699,-6.4753,-6.4768,-6.4814,-6.486,-6.4901,-6.4924,-6.4984,-6.4999,-6.5035,-6.5091,-6.5115,-6.5182,-6.5193,-6.5268,-6.5267,-6.5254,-6.5255,-6.5295,-6.5291,-6.5421,-6.5439,-6.5337,-6.5338,-6.5338,0,-6.4643,-6.4689,-6.4749,-6.4783,-6.4812,-6.4866,-6.4901,-6.4924,-6.496,-6.5017,-6.5051,-6.5108,-6.5155,-6.5244,-6.5274,-6.5327,-6.5327,-6.5369,-6.5335,-6.533,-6.5328,-6.5325,-6.533,-6.5375,-6.5376,-6.5377,-6.5378,0,-6.473,-6.4744,-6.4795,-6.4853,-6.4896,-6.4941,-6.4986,-6.5012,-6.5043,-6.5083,-6.5142,-6.5179,-6.525,-6.5306,-6.5361,-6.5386,-6.5387,-6.5389,-6.5401,-6.5397,-6.5388,-6.5394,-6.5271,-6.5385,-6.5384,-6.5384,-6.5383,-6.5383,-6.479,-6.4832,-6.4882,-6.4939,-6.4976,-6.5018,-6.5061,-6.5091,-6.5141,-6.5203,-6.5213,-6.5276,-6.5321,-6.5395,-6.5424,-6.5472,-6.5461,-6.5479,-6.5484,-6.5488,-6.5491,-6.5381,-6.5482,-6.5482,-6.5482,-6.5481,-6.5481,0,-6.4878,-6.4911,-6.4964,-6.5028,-6.5074,-6.5074,-6.5123,-6.5161,-6.5217,-6.526,-6.5307,-6.5376,-6.5431,-6.5467,-6.5522,-6.5554,-6.5556,-6.5568,-6.5566,-6.5572,-6.5497,-6.5481,-6.5566,-6.5566,-6.5566,-6.5566,-6.5566,-6.5566,-6.4929,-6.5001,-6.502,-6.511,-6.5142,-6.5206,-6.5235,-6.5274,-6.5309,-6.5386,-6.5433,-6.5457,-6.5497,-6.5556,-6.5607,-6.5616,-6.5636,-6.5648,-6.5657,-6.5586,-6.5577,-6.5568,-6.5553,-6.5653,-6.5653,-6.5728,-6.5729,-6.5729]}]]